| time (UTC) | temp F | wind direction | speed MPH | gust MPH | rain 1hr in | rain 24hr in | rain mn in | humidity % | barometer mb |
| 20260905131519 | 63 | 165 | 0.0 | 2.0 | 0.00 | 0.00 | 0.00 | 93 | 1012.0 |
| 20260905130020 | 62 | 165 | 4.0 | 6.0 | 0.00 | 0.00 | 0.00 | 94 | 1012.1 |
| 20260905124521 | 61 | 215 | 2.0 | 5.0 | 0.00 | 0.00 | 0.00 | 94 | 1012.3 |
| 20260905123019 | 61 | 214 | 0.0 | 1.0 | 0.00 | 0.00 | 0.00 | 94 | 1012.6 |
| 20260905121516 | 60 | 214 | 2.0 | 4.0 | 0.00 | 0.00 | 0.00 | 93 | 1012.6 |
| 20260905120014 | 60 | 203 | 2.0 | 4.0 | 0.00 | 0.00 | 0.00 | 93 | 1012.4 |
| 20260905114513 | 59 | 30 | 2.0 | 4.0 | 0.00 | 0.00 | 0.00 | 93 | 1012.0 |
| 20260905113011 | 58 | 5 | 1.0 | 4.0 | 0.00 | 0.00 | 0.00 | 93 | 1011.8 |
| 20260905111511 | 58 | 5 | 1.0 | 3.0 | 0.00 | 0.00 | 0.00 | 93 | 1011.7 |
| 20260905110011 | 58 | 5 | 1.0 | 4.0 | 0.00 | 0.00 | 0.00 | 93 | 1011.8 |
| 20260905104509 | 57 | 5 | 2.0 | 3.0 | 0.00 | 0.00 | 0.00 | 93 | 1011.4 |
| 20260905103017 | 57 | 5 | 0.0 | 2.0 | 0.00 | 0.00 | 0.00 | 92 | 1011.1 |
| 20260905101510 | 57 | 5 | 1.0 | 2.0 | 0.00 | 0.00 | 0.00 | 92 | 1011.1 |
| 20260905100007 | 57 | 5 | 1.0 | 2.0 | 0.00 | 0.00 | 0.00 | 92 | 1010.9 |
| 20260905094509 | 57 | 5 | 0.0 | 2.0 | 0.00 | 0.00 | 0.00 | 92 | 1010.7 |
| 20260905093005 | 58 | 5 | 0.0 | 1.0 | 0.00 | 0.00 | 0.00 | 92 | 1010.8 |
| 20260905091505 | 58 | 5 | 1.0 | 3.0 | 0.00 | 0.00 | 0.00 | 92 | 1010.7 |
| 20260905090002 | 58 | 5 | 1.0 | 3.0 | 0.00 | 0.00 | 0.00 | 92 | 1010.7 |
| 20260905084501 | 58 | 5 | 0.0 | 2.0 | 0.00 | 0.00 | 0.00 | 92 | 1010.8 |
| 20260905083059 | 59 | 5 | 1.0 | 2.0 | 0.00 | 0.00 | 0.00 | 92 | 1010.8 |
| 20260905081559 | 59 | 5 | 2.0 | 3.0 | 0.00 | 0.00 | 0.00 | 92 | 1010.8 |
| 20260905080101 | 59 | 5 | 0.0 | 2.0 | 0.00 | 0.00 | 0.00 | 92 | 1010.8 |
| 20260905074559 | 59 | 5 | 1.0 | 2.0 | 0.00 | 0.00 | 0.00 | 91 | 1010.8 |
| 20260905073100 | 60 | 5 | 1.0 | 3.0 | 0.00 | 0.00 | 0.00 | 91 | 1010.9 |
| 20260905071552 | 60 | 5 | 1.0 | 3.0 | 0.00 | 0.00 | 0.00 | 91 | 1010.9 |
| 20260905070057 | 60 | 5 | 1.0 | 3.0 | 0.00 | 0.00 | 0.00 | 91 | 1011.2 |
| 20260905064549 | 60 | 5 | 1.0 | 3.0 | 0.00 | 0.00 | 0.00 | 90 | 1011.2 |
| 20260905063048 | 61 | 5 | 0.0 | 3.0 | 0.00 | 0.00 | 0.00 | 90 | 1011.1 |
| 20260905061612 | 61 | 5 | 0.0 | 0.0 | 0.00 | 0.00 | 0.00 | 90 | 1011.2 |
| 20260905060046 | 61 | 5 | 0.0 | 0.0 | 0.00 | 0.00 | 0.00 | 90 | 1011.4 |
| 20260905054542 | 62 | 5 | 0.0 | 0.0 | 0.00 | 0.00 | 0.00 | 89 | 1011.5 |
| 20260905053043 | 62 | 5 | 0.0 | 0.0 | 0.00 | 0.00 | 0.00 | 89 | 1011.5 |
| 20260905051540 | 63 | 5 | 0.0 | 0.0 | 0.00 | 0.00 | 0.00 | 89 | 1011.5 |
| 20260905050037 | 63 | 5 | 0.0 | 1.0 | 0.00 | 0.00 | 0.00 | 88 | 1011.6 |
| 20260905044536 | 64 | 5 | 0.0 | 0.0 | 0.00 | 0.03 | 0.00 | 88 | 1011.8 |
| 20260905043031 | 65 | 5 | 0.0 | 0.0 | 0.00 | 0.03 | 0.00 | 88 | 1011.7 |
| 20260905041529 | 65 | 5 | 0.0 | 0.0 | 0.00 | 0.03 | 0.00 | 88 | 1011.6 |
| 20260905040028 | 66 | 5 | 0.0 | 0.0 | 0.00 | 0.03 | 0.00 | 88 | 1011.7 |
| 20260905034527 | 66 | 5 | 0.0 | 0.0 | 0.00 | 0.92 | 0.03 | 88 | 1011.5 |
| 20260905033031 | 67 | 5 | 0.0 | 0.0 | 0.00 | 0.92 | 0.03 | 88 | 1011.6 |
| 20260905031524 | 67 | 5 | 0.0 | 0.0 | 0.00 | 0.92 | 0.03 | 88 | 1011.5 |
| 20260905030034 | 67 | 5 | 0.0 | 0.0 | 0.00 | 0.92 | 0.03 | 87 | 1011.6 |
| 20260905024523 | 68 | 5 | 0.0 | 0.0 | 0.00 | 0.92 | 0.03 | 87 | 1011.4 |
| 20260905023028 | 68 | 5 | 0.0 | 0.0 | 0.00 | 0.92 | 0.03 | 87 | 1011.5 |
| 20260905021523 | 68 | 5 | 0.0 | 2.0 | 0.00 | 0.92 | 0.03 | 87 | 1011.4 |
| 20260905020021 | 68 | 5 | 1.0 | 2.0 | 0.00 | 0.92 | 0.03 | 86 | 1011.5 |
| 20260905014523 | 68 | 5 | 0.0 | 2.0 | 0.00 | 0.92 | 0.03 | 87 | 1011.7 |
| 20260905013025 | 68 | 5 | 0.0 | 2.0 | 0.00 | 0.92 | 0.03 | 86 | 1011.8 |
| 20260905011520 | 69 | 5 | 1.0 | 2.0 | 0.00 | 0.92 | 0.03 | 85 | 1011.7 |
| 20260905010022 | 69 | 5 | 0.0 | 3.0 | 0.00 | 0.92 | 0.03 | 85 | 1011.5 |
| 20260905004526 | 69 | 5 | 1.0 | 2.0 | 0.00 | 0.92 | 0.03 | 84 | 1011.4 |
| 20260905003029 | 70 | 5 | 0.0 | 0.0 | 0.00 | 0.92 | 0.03 | 83 | 1011.1 |
| 20260905001541 | 70 | 5 | 0.0 | 1.0 | 0.00 | 0.92 | 0.03 | 82 | 1011.3 |
| 20260905000018 | 71 | 5 | 0.0 | 2.0 | 0.00 | 0.92 | 0.03 | 81 | 1010.9 |
| 20260904234522 | 71 | 5 | 0.0 | 1.0 | 0.00 | 0.92 | 0.03 | 80 | 1010.9 |
| 20260904233036 | 72 | 5 | 1.0 | 2.0 | 0.00 | 0.92 | 0.03 | 77 | 1010.8 |
| 20260904231519 | 73 | 5 | 0.0 | 1.0 | 0.00 | 0.92 | 0.03 | 75 | 1010.9 |
| 20260904230124 | 74 | 5 | 1.0 | 2.0 | 0.00 | 0.92 | 0.03 | 73 | 1010.7 |
| 20260904224514 | 74 | 5 | 1.0 | 3.0 | 0.00 | 0.92 | 0.03 | 71 | 1010.7 |
| 20260904223015 | 74 | 5 | 0.0 | 5.0 | 0.00 | 0.92 | 0.03 | 67 | 1010.8 |
| 20260904221513 | 75 | 9 | 1.0 | 4.0 | 0.00 | 0.92 | 0.03 | 66 | 1010.8 |
| 20260904220013 | 75 | 10 | 2.0 | 4.0 | 0.00 | 0.92 | 0.03 | 65 | 1010.6 |
| 20260904214512 | 75 | 10 | 0.0 | 5.0 | 0.00 | 0.92 | 0.03 | 64 | 1010.6 |
| 20260904213021 | 75 | 360 | 3.0 | 9.0 | 0.00 | 0.92 | 0.03 | 63 | 1010.7 |
| 20260904211510 | 76 | 337 | 1.0 | 4.0 | 0.00 | 0.92 | 0.03 | 65 | 1010.8 |
| 20260904210010 | 76 | 29 | 1.0 | 3.0 | 0.00 | 0.92 | 0.03 | 66 | 1011.0 |
| 20260904204512 | 76 | 32 | 0.0 | 6.0 | 0.00 | 0.92 | 0.03 | 64 | 1010.9 |
| 20260904203010 | 77 | 32 | 2.0 | 8.0 | 0.00 | 0.92 | 0.03 | 63 | 1011.0 |
| 20260904201508 | 76 | 14 | 2.0 | 5.0 | 0.00 | 0.92 | 0.03 | 63 | 1011.1 |
| 20260904200008 | 76 | 322 | 2.0 | 6.0 | 0.00 | 0.92 | 0.03 | 64 | 1011.4 |
| 20260904194507 | 76 | 32 | 3.0 | 9.0 | 0.00 | 0.92 | 0.03 | 65 | 1011.4 |
| 20260904193007 | 76 | 28 | 2.0 | 14.0 | 0.00 | 0.92 | 0.03 | 63 | 1011.6 |
| 20260904191506 | 78 | 343 | 2.0 | 5.0 | 0.00 | 0.92 | 0.03 | 58 | 1011.6 |
| 20260904190005 | 78 | 330 | 4.0 | 9.0 | 0.00 | 0.92 | 0.03 | 59 | 1011.5 |
| 20260904184503 | 77 | 10 | 3.0 | 8.0 | 0.00 | 0.92 | 0.03 | 58 | 1011.8 |
| 20260904183002 | 77 | 19 | 2.0 | 10.0 | 0.00 | 0.92 | 0.03 | 61 | 1011.8 |
| 20260904181600 | 77 | 18 | 3.0 | 10.0 | 0.00 | 0.92 | 0.03 | 61 | 1011.9 |
| 20260904180104 | 77 | 351 | 3.0 | 10.0 | 0.00 | 0.92 | 0.03 | 61 | 1012.1 |
| 20260904174558 | 77 | 360 | 3.0 | 6.0 | 0.00 | 0.92 | 0.03 | 61 | 1012.3 |
| 20260904173104 | 76 | 324 | 3.0 | 12.0 | 0.00 | 0.92 | 0.03 | 64 | 1012.3 |
| 20260904171557 | 76 | 15 | 1.0 | 4.0 | 0.00 | 0.92 | 0.03 | 66 | 1012.4 |
| 20260904170055 | 77 | 27 | 2.0 | 8.0 | 0.00 | 0.92 | 0.03 | 67 | 1012.7 |
| 20260904164554 | 76 | 333 | 1.0 | 4.0 | 0.00 | 0.92 | 0.03 | 68 | 1012.5 |
| 20260904163052 | 74 | 5 | 2.0 | 5.0 | 0.00 | 0.92 | 0.03 | 70 | 1012.6 |
| 20260904161559 | 74 | 28 | 3.0 | 6.0 | 0.00 | 0.92 | 0.03 | 71 | 1012.7 |
| 20260904160057 | 74 | 44 | 5.0 | 11.0 | 0.00 | 0.92 | 0.03 | 67 | 1012.7 |
| 20260904154549 | 74 | 5 | 3.0 | 9.0 | 0.00 | 0.92 | 0.03 | 68 | 1012.7 |
| 20260904153047 | 73 | 26 | 5.0 | 9.0 | 0.00 | 0.92 | 0.03 | 68 | 1012.7 |
| 20260904151549 | 73 | 5 | 2.0 | 8.0 | 0.00 | 0.92 | 0.03 | 73 | 1012.6 |
| 20260904150041 | 73 | 14 | 0.0 | 3.0 | 0.00 | 0.92 | 0.03 | 75 | 1012.7 |
| 20260904144551 | 72 | 360 | 3.0 | 6.0 | 0.00 | 0.92 | 0.03 | 74 | 1012.8 |
| 20260904143054 | 71 | 33 | 1.0 | 6.0 | 0.00 | 0.92 | 0.03 | 76 | 1012.6 |
| 20260904141536 | 71 | 346 | 3.0 | 5.0 | 0.00 | 0.92 | 0.03 | 77 | 1013.0 |
| 20260904140038 | 70 | 17 | 4.0 | 10.0 | 0.00 | 0.92 | 0.03 | 77 | 1013.0 |
| 20260904134535 | 69 | 13 | 7.0 | 12.0 | 0.00 | 0.92 | 0.03 | 80 | 1012.8 |
| 20260904133033 | 68 | 323 | 1.0 | 5.0 | 0.00 | 0.92 | 0.03 | 90 | 1012.8 |